Regional Weather Roundup
Issued by NWS Northern Indiana

Home | Current Version | Previous Version | Text Only | Print | Product List | Glossary On
Versions: 1 2 3 4 5 6 7 8 9 10 11 12 13 14 15 16 17 18 19 20 21 22 23 24 25 26 27 28 29 30 31 32 33 34 35 36 37 38 39 40 41 42 43 44 45 46 47 48 49 50
200
ASUS43 KIWX 270910
RWRIWX

KIWX WEATHER ROUNDUP
NATIONAL WEATHER SERVICE NORTHERN INDIANA
500 AM EDT MON MAR 27 2017

NOTE: "FAIR" INDICATES FEW OR NO CLOUDS BELOW 12,000 FEET WITH NO
SIGNIFICANT WEATHER AND/OR OBSTRUCTIONS TO VISIBILITY.

* THESE STATIONS ARE NOT UNDER NWS QUALITY CONTROL. THEY ALSO MAY NOT
  REPORT WEATHER SUCH AS PRECIPITATION OR FOG.

INZ001>027-271000-
NORTHERN INDIANA

CITY           SKY/WX    TMP DP  RH WIND       PRES   REMARKS
GARY*          CLOUDY    52  49  89 W7        29.91S
VALPARAISO     CLOUDY    50  50 100 W9        29.91S FOG
MICHIGAN CITY* CLOUDY    50  50 100 SW6       29.91S FOG
LAPORTE*       CLOUDY    49  48  97 W7        29.91S FOG
KNOX*          CLOUDY    48  43  81 W12       29.91F
SOUTH BEND     CLOUDY    49  49 100 SW10      29.90F
GOSHEN         CLOUDY    50  47  89 W10       29.89S
MONTICELLO*    MOCLDY    49  46  91 W6        29.93R
LOGANSPORT*    CLOUDY    50  46  87 W10       29.94S
ROCHESTER*     CLOUDY    52  50  93 W6        29.92S FOG
WARSAW*        LGT RAIN  50  46  87 W7        29.91S
ANGOLA*          N/A     50  43  76 W9        29.89R
FORT WAYNE     DRIZZLE   51  49  92 W14       29.92R FOG
HUNTINGTON*    CLOUDY    51  49  95 W5        29.92S FOG
PERU/GRISSOM   CLOUDY    50  50 100 W13       29.92R
MARION*        CLOUDY    50  50  98 W9        29.94S

$$
INZ028>050-271000-
CENTRAL INDIANA

CITY           SKY/WX    TMP DP  RH WIND       PRES   REMARKS
LAFAYETTE      CLOUDY    50  49  96 W7        29.94S
KOKOMO*        CLOUDY    51  49  92 W10       29.94R
MUNCIE*        CLOUDY    54  48  80 SW7       29.93F
INDIANAPOLIS   MOCLDY    50  47  89 W7        29.95S

$$
MIZ043>046-050>051-056>058-064>065-071>073-077>080-271000-
SOUTHWEST LOWER MICHIGAN

CITY           SKY/WX    TMP DP  RH WIND       PRES   REMARKS
BATTLE CREEK   CLOUDY    51  51 100 SW10      29.87R FOG
BENTON HARBOR  CLOUDY    45  43  93 W7        29.89S FOG
COLDWATER*     CLOUDY    52  52  99 W8        29.88S
HILLSDALE*     CLOUDY    50  48  93 SW7       29.87R FOG
HOLLAND        CLOUDY    42  41  96 W9        29.89R
GRAND RAPIDS   CLOUDY    45  45 100 W9        29.86R FOG
KALAMAZOO      CLOUDY    51  48  89 W13       29.87S
STURGIS*       CLOUDY    50  49  98 W9        29.88R FOG
THREE RIVERS*  CLOUDY    50  50 100 SW7       29.89R FOG

$$
OHZ001>008-015>018-024>025-271000-
NORTHWEST OHIO

CITY           SKY/WX    TMP DP  RH WIND       PRES   REMARKS
WAUSEON*       CLOUDY    52  52 100 W9        29.88S
DEFIANCE       CLOUDY    51  49  92 SW7       29.91R
FINDLAY        CLOUDY    53  49  86 SW8       29.91R
TOLEDO EXPRESS CLOUDY    52  52 100 SW8       29.88R
TOLEDO METCALF CLOUDY    53  52  96 SW9       29.90R
LIMA           CLOUDY    52  50  93 SW8       29.92R

$$
AND FOR LAKE MICHIGAN COASTAL AND OPEN LAKE BUOY OBSERVATIONS

STATION/POSITION TEMP    WIND        PRES    VSBY  WAVE
                 AIR SEA DIR/SP/G                  HT/PER
                 (F)     (DEG/KT/KT) (MB)    (MI)  (FT/S)
CALUMET HARBOR    51     220/  6/ 10 1011.8F
MICHIGAN CITY     47     220/ 13/ 14   N/A
BURNS HARBOR      50     230/  9/ 14 1012.9F
SAINT JOSEPH      43     200/  4/  6 1013.2

$$
&&




USA.gov is the U.S. government's official web portal to all federal, state and local government web resources and services.